Queensbury, NY

12:41 AM EST on December 05, 2016 (GMT -0500)
Bennett Memorial

Weather History for KGFL - January, 2013

Change the Weather History Date:

Wednesday, January 2, 2013

  Actual Average Record
Temperature  
Mean Temperature 8 °F 19 °F  
Max Temperature 25 °F 29 °F 47 °F (1979)
Min Temperature -9 °F 10 °F -24 °F (1968)
Degree Days  
Heating Degree Days 57 46  
Month to date heating degree days 107 91  
Since 1 July heating degree days 2698 3029  
Cooling Degree Days 0 0  
Month to date cooling degree days 0 0  
Year to date cooling degree days 0 0  
Moisture  
Dew Point 2 °F    
Average Humidity 70    
Maximum Humidity 90    
Minimum Humidity 49    
Precipitation  
Precipitation T in 0.09 in 0.92 in (1979)
Month to date precipitation T 0.18  
Year to date precipitation T 0.18  
Sea Level Pressure  
Sea Level Pressure 30.06 in    
Wind  
Wind Speed 5 mph (NE)    
Max Wind Speed 18 mph    
Max Gust Speed 22 mph    
Visibility 8 miles    
Events Snow    
T = Trace of Precipitation, MM = Missing Value Source: NWS Daily Summary

Daily Weather History Graph

Daily Weather History Graph

Search for Another Location

Airport or City:

Trip Planner

Search our weather history database for the weather conditions in past years. The results will help you decide how hot, cold, wet, or windy it might be!

Date:

Astronomy

Jan. 02, 2013 Rise Set
Actual Time 7:27 AM EST 4:30 PM EST
Civil Twilight 6:54 AM EST 5:02 PM EST
Nautical Twilight 6:18 AM EST 5:38 PM EST
Astronomical Twilight 5:44 AM EST 6:13 PM EST
Moon 10:10 PM EST (1/2) 9:58 AM EST (1/2)
Length of Visible Light 10h 08m
Length of Day
9h 03m
Waning Gibbous, 75% of the Moon is Illuminated
Jan 2
Waning Gibbous
Jan 4
Last Quarter
Jan 11
New
Jan 18
First Quarter
Jan 26
Full

Hourly Weather History & Observations

Time (EST) Temp. Windchill Dew Point Humidity Pressure Visibility Wind Dir Wind Speed Gust Speed Precip Events Conditions
12:53 AM -5.1 °F - -9.0 °F 83% 30.01 in 10.0 mi Calm Calm - N/A   Clear
1:53 AM -7.1 °F - -9.9 °F 87% 30.01 in 10.0 mi Calm Calm - N/A   Clear
2:42 AM -7.6 °F - -13.0 °F 77% 29.97 in 10.0 mi Calm Calm - N/A   Partly Cloudy
2:53 AM -8.0 °F - -13.0 °F 79% 30.02 in 10.0 mi Calm Calm - N/A   Partly Cloudy
3:53 AM -5.8 °F - -9.4 °F 84% 29.96 in 10.0 mi Calm Calm - N/A   Scattered Clouds
4:53 AM -0.9 °F - -6.0 °F 79% 29.99 in 10.0 mi Calm Calm - N/A   Overcast
5:53 AM 6.1 °F -2.8 °F 1.9 °F 83% 29.97 in 10.0 mi South 4.6 mph - N/A   Overcast
6:53 AM 8.1 °F - 3.0 °F 80% 29.97 in 9.0 mi Calm Calm - N/A   Overcast
7:53 AM 9.0 °F 2.4 °F 5.0 °F 84% 29.98 in 8.0 mi ENE 3.5 mph - 0.00 in   Overcast
8:53 AM 10.9 °F - 7.0 °F 84% 29.99 in 6.0 mi Calm Calm - 0.00 in   Overcast
9:46 AM 14.0 °F - 8.6 °F 79% 29.96 in 2.5 mi Calm Calm - 0.00 in   Haze
9:53 AM 14.0 °F - 9.0 °F 80% 30.01 in 6.0 mi Calm Calm - 0.00 in   Haze
10:53 AM 17.1 °F - 10.9 °F 77% 30.01 in 8.0 mi Calm Calm - N/A   Overcast
11:53 AM 19.0 °F 12.3 °F 12.9 °F 77% 30.01 in 3.0 mi NNE 4.6 mph - 0.00 in Snow Light Snow
12:07 PM 17.6 °F - 12.2 °F 79% 29.96 in 2.0 mi Calm Calm - 0.00 in Snow Light Snow
12:15 PM 17.6 °F - 12.2 °F 79% 29.96 in 1.8 mi Calm Calm - 0.00 in Snow Light Snow
12:48 PM 19.4 °F 14.3 °F 14.0 °F 80% 29.95 in 2.0 mi South 3.5 mph - 0.00 in Snow Light Snow
12:53 PM 19.0 °F 12.3 °F 15.1 °F 85% 30.00 in 3.0 mi South 4.6 mph - 0.00 in Snow Light Snow
1:53 PM 24.1 °F 17.0 °F 12.0 °F 60% 30.01 in 10.0 mi West 5.8 mph - 0.00 in   Mostly Cloudy
2:53 PM 21.9 °F 9.8 °F 6.1 °F 51% 30.04 in 10.0 mi North 12.7 mph - N/A   Partly Cloudy
3:53 PM 19.9 °F 8.6 °F 3.0 °F 48% 30.09 in 10.0 mi North 10.4 mph - N/A   Clear
4:53 PM 12.9 °F 0.7 °F 3.9 °F 67% 30.13 in 10.0 mi NNE 9.2 mph - N/A   Clear
5:53 PM 9.0 °F -3.2 °F 1.9 °F 73% 30.16 in 10.0 mi East 8.1 mph - N/A   Clear
6:53 PM 7.0 °F -7.5 °F -0.0 °F 73% 30.19 in 10.0 mi NE 10.4 mph - N/A   Clear
7:53 PM 3.9 °F -10.4 °F -2.0 °F 76% 30.21 in 10.0 mi ENE 9.2 mph - N/A   Clear
8:53 PM 1.9 °F -13.8 °F -5.1 °F 72% 30.24 in 7.0 mi ENE 10.4 mph - N/A   Clear
9:42 PM 1.4 °F -13.5 °F -5.8 °F 72% 30.21 in 10.0 mi ENE 9.2 mph - N/A   Mostly Cloudy
9:53 PM 1.0 °F -14.0 °F -6.0 °F 72% 30.26 in 10.0 mi ENE 9.2 mph - N/A   Overcast
10:53 PM 1.0 °F -11.7 °F -7.1 °F 69% 30.27 in 10.0 mi NE 6.9 mph - N/A   Overcast
11:53 PM -0.0 °F -7.9 °F -7.1 °F 72% 30.29 in 9.0 mi East 3.5 mph - N/A   Overcast